User: anonymous   Login
Location: Unspecified
(0.0000°N, 0.0000°E)
Time: 03:58:17
(UTC+00:00)
Language:

SRMSAT - Orbit

View from above orbital plane
View from above orbital plane
View from above satellite
View from above satellite

Ground track
Ground track

The orbit data is extracted from the following two-line orbital elements,

1 37841U 11058D   19177.86751944  .00000291  00000-0  14496-4 0  9997
2 37841  19.9737 342.1443 0011822 286.8778 232.6681 14.10634079397857
Epoch (UTC): 26 June 2019 20:49:13
Eccentricity: 0.0011822
inclination: 19.9737°
perigee height: 848 km
apogee height: 866 km
right ascension of ascending node: 342.1443°
argument of perigee: 286.8778°
revolutions per day: 14.10634079
mean anomaly at epoch: 232.6681°
orbit number at epoch: 39785

The dashed part of the orbit path shows where the satellite is in the earth's shadow,  

DLR